Stündliche Wetter Cayenne

Heute, 28 Oktober, Mittwoch

Zeit Temperatur Niederschläge Wind Luftdruck Luftfeuchtigkeit
00:00 +27°C° 0 mm 4 m/S 755 mmHg 87%
01:00 +27°C° 0 mm 4 m/S 754 mmHg 89%
02:00 +27°C° 0 mm 3 m/S 754 mmHg 91%
03:00 +27°C° 0 mm 3 m/S 753 mmHg 92%
04:00 +26°C° 0 mm 3 m/S 753 mmHg 93%
05:00 +26°C° 0 mm 3 m/S 753 mmHg 93%
06:00 +26°C° 0 mm 3 m/S 753 mmHg 94%
07:00 +28°C° 0 mm 3 m/S 754 mmHg 85%
08:00 +30°C° 0 mm 4 m/S 755 mmHg 76%
09:00 +33°C° 0 mm 4 m/S 756 mmHg 67%
10:00 +34°C° 0 mm 4 m/S 755 mmHg 62%
11:00 +35°C° 0 mm 4 m/S 755 mmHg 58%
12:00 +36°C° 0 mm 5 m/S 755 mmHg 53%
13:00 +35°C° 0.1 mm 5 m/S 754 mmHg 54%
14:00 +35°C° 0.1 mm 5 m/S 753 mmHg 54%
15:00 +35°C° 0.1 mm 5 m/S 753 mmHg 55%
16:00 +34°C° 0 mm 5 m/S 753 mmHg 61%
17:00 +32°C° 0 mm 5 m/S 753 mmHg 67%
18:00 +30°C° 0 mm 5 m/S 753 mmHg 74%
19:00 +29°C° 0 mm 5 m/S 754 mmHg 77%
20:00 +29°C° 0 mm 4 m/S 755 mmHg 80%
21:00 +28°C° 0 mm 4 m/S 755 mmHg 83%
22:00 +28°C° 0 mm 4 m/S 755 mmHg 84%
23:00 +28°C° 0 mm 4 m/S 755 mmHg 85%

Morgen, 29 Oktober, Donnerstag

Zeit Temperatur Niederschläge Wind Luftdruck Luftfeuchtigkeit
00:00 +28°C° 0 mm 4 m/S 755 mmHg 87%
01:00 +28°C° 0 mm 4 m/S 754 mmHg 88%
02:00 +27°C° 0 mm 4 m/S 754 mmHg 89%
03:00 +27°C° 0 mm 4 m/S 753 mmHg 90%
04:00 +27°C° 0.1 mm 4 m/S 754 mmHg 89%
05:00 +27°C° 0.1 mm 4 m/S 754 mmHg 89%
06:00 +28°C° 0.1 mm 4 m/S 754 mmHg 88%
07:00 +29°C° 0 mm 4 m/S 755 mmHg 81%
08:00 +32°C° 0 mm 5 m/S 755 mmHg 73%
09:00 +33°C° 0 mm 5 m/S 756 mmHg 66%
10:00 +34°C° 0 mm 5 m/S 756 mmHg 62%
11:00 +35°C° 0 mm 5 m/S 756 mmHg 59%
12:00 +36°C° 0 mm 5 m/S 755 mmHg 55%
13:00 +35°C° 0 mm 5 m/S 755 mmHg 56%
14:00 +35°C° 0 mm 5 m/S 754 mmHg 57%
15:00 +35°C° 0 mm 5 m/S 753 mmHg 57%
16:00 +34°C° 0 mm 5 m/S 754 mmHg 64%
17:00 +32°C° 0 mm 5 m/S 754 mmHg 70%
18:00 +30°C° 0 mm 5 m/S 754 mmHg 76%
19:00 +30°C° 0 mm 5 m/S 755 mmHg 79%
20:00 +29°C° 0 mm 4 m/S 755 mmHg 82%
21:00 +29°C° 0 mm 4 m/S 756 mmHg 85%
22:00 +28°C° 0.1 mm 4 m/S 756 mmHg 87%
23:00 +28°C° 0.1 mm 4 m/S 755 mmHg 89%

übermorgen, 30 Oktober, Freitag

Zeit Temperatur Niederschläge Wind Luftdruck Luftfeuchtigkeit
00:00 +28°C° 0.1 mm 4 m/S 755 mmHg 92%
01:00 +27°C° 0.2 mm 4 m/S 755 mmHg 93%
02:00 +27°C° 0.2 mm 4 m/S 754 mmHg 93%
03:00 +27°C° 0.2 mm 4 m/S 753 mmHg 94%
04:00 +27°C° 0.2 mm 4 m/S 754 mmHg 94%
05:00 +27°C° 0.2 mm 4 m/S 754 mmHg 95%
06:00 +27°C° 0.2 mm 4 m/S 755 mmHg 95%
07:00 +28°C° 0.5 mm 4 m/S 755 mmHg 91%
08:00 +29°C° 0.5 mm 5 m/S 756 mmHg 87%
09:00 +30°C° 0.5 mm 5 m/S 757 mmHg 83%
10:00 +30°C° 1.1 mm 5 m/S 757 mmHg 84%
11:00 +30°C° 1.1 mm 5 m/S 756 mmHg 85%
12:00 +30°C° 1.1 mm 4 m/S 756 mmHg 86%
13:00 +30°C° 0.6 mm 4 m/S 756 mmHg 85%
14:00 +30°C° 0.6 mm 4 m/S 755 mmHg 84%
15:00 +30°C° 0.6 mm 4 m/S 755 mmHg 83%
16:00 +29°C° 0.6 mm 4 m/S 755 mmHg 85%
17:00 +29°C° 0.6 mm 4 m/S 755 mmHg 87%
18:00 +28°C° 0.6 mm 4 m/S 755 mmHg 90%
19:00 +28°C° 0.7 mm 3 m/S 755 mmHg 92%
20:00 +27°C° 0.7 mm 3 m/S 756 mmHg 94%
21:00 +27°C° 0.7 mm 3 m/S 756 mmHg 96%
22:00 +27°C° 0.6 mm 3 m/S 756 mmHg 96%
23:00 +26°C° 0.6 mm 4 m/S 756 mmHg 96%

31 Oktober, Samstag

Zeit Temperatur Niederschläge Wind Luftdruck Luftfeuchtigkeit
00:00 +26°C° 0.6 mm 4 m/S 755 mmHg 96%
01:00 +26°C° 0.4 mm 4 m/S 755 mmHg 96%
02:00 +26°C° 0.4 mm 4 m/S 755 mmHg 96%
03:00 +26°C° 0.4 mm 4 m/S 754 mmHg 96%
04:00 +26°C° 0.6 mm 4 m/S 755 mmHg 96%
05:00 +26°C° 0.6 mm 4 m/S 755 mmHg 96%
06:00 +26°C° 0.6 mm 4 m/S 755 mmHg 97%
07:00 +27°C° 0.6 mm 4 m/S 756 mmHg 92%
08:00 +29°C° 0.6 mm 4 m/S 756 mmHg 87%
09:00 +30°C° 0.6 mm 4 m/S 757 mmHg 82%
10:00 +32°C° 0.8 mm 4 m/S 756 mmHg 78%
11:00 +33°C° 0.8 mm 4 m/S 756 mmHg 74%
12:00 +33°C° 0.8 mm 4 m/S 756 mmHg 69%
13:00 +33°C° 0.5 mm 4 m/S 755 mmHg 70%
14:00 +33°C° 0.5 mm 4 m/S 755 mmHg 71%
15:00 +33°C° 0.5 mm 5 m/S 754 mmHg 72%
16:00 +32°C° 0.1 mm 4 m/S 754 mmHg 75%
17:00 +30°C° 0.1 mm 4 m/S 754 mmHg 78%
18:00 +29°C° 0.1 mm 4 m/S 754 mmHg 81%
19:00 +28°C° 0.4 mm 4 m/S 755 mmHg 85%
20:00 +28°C° 0.4 mm 4 m/S 755 mmHg 89%
21:00 +27°C° 0.4 mm 4 m/S 755 mmHg 93%
22:00 +27°C° 0.9 mm 4 m/S 756 mmHg 94%
23:00 +26°C° 0.9 mm 4 m/S 756 mmHg 95%

1 November, Sonntag

Zeit Temperatur Niederschläge Wind Luftdruck Luftfeuchtigkeit
00:00 +26°C° 0.9 mm 4 m/S 756 mmHg 96%
01:00 +26°C° 1.4 mm 4 m/S 755 mmHg 96%
02:00 +26°C° 1.4 mm 3 m/S 755 mmHg 97%
03:00 +26°C° 1.4 mm 3 m/S 755 mmHg 97%
04:00 +26°C° 1.4 mm 3 m/S 755 mmHg 97%
05:00 +26°C° 1.4 mm 3 m/S 755 mmHg 97%
06:00 +26°C° 1.4 mm 3 m/S 755 mmHg 97%
07:00 +27°C° 1.2 mm 3 m/S 756 mmHg 94%
08:00 +28°C° 1.2 mm 3 m/S 756 mmHg 92%
09:00 +29°C° 1.2 mm 3 m/S 757 mmHg 89%
10:00 +29°C° 0.7 mm 4 m/S 756 mmHg 88%
11:00 +29°C° 0.7 mm 4 m/S 756 mmHg 87%
12:00 +29°C° 0.7 mm 4 m/S 756 mmHg 87%
13:00 +30°C° 0.4 mm 4 m/S 755 mmHg 80%
14:00 +32°C° 0.4 mm 4 m/S 754 mmHg 74%
15:00 +33°C° 0.4 mm 4 m/S 754 mmHg 67%
16:00 +30°C° 1 mm 4 m/S 754 mmHg 74%
17:00 +29°C° 1 mm 4 m/S 754 mmHg 81%
18:00 +28°C° 1 mm 4 m/S 754 mmHg 89%
19:00 +27°C° 1.8 mm 4 m/S 755 mmHg 90%
20:00 +27°C° 1.8 mm 5 m/S 755 mmHg 92%
21:00 +27°C° 1.8 mm 5 m/S 756 mmHg 94%
22:00 +26°C° 2.4 mm 5 m/S 756 mmHg 94%
23:00 +26°C° 2.4 mm 5 m/S 756 mmHg 94%

2 November, Montag

Zeit Temperatur Niederschläge Wind Luftdruck Luftfeuchtigkeit
00:00 +26°C° 2.4 mm 5 m/S 756 mmHg 94%
01:00 +26°C° 2.8 mm 5 m/S 755 mmHg 94%
02:00 +26°C° 2.8 mm 5 m/S 755 mmHg 95%
03:00 +26°C° 2.8 mm 5 m/S 755 mmHg 95%
04:00 +26°C° 2.1 mm 5 m/S 755 mmHg 95%
05:00 +26°C° 2.1 mm 5 m/S 755 mmHg 96%
06:00 +26°C° 2.1 mm 4 m/S 755 mmHg 96%
07:00 +27°C° 1.8 mm 5 m/S 755 mmHg 95%
08:00 +28°C° 1.8 mm 5 m/S 756 mmHg 94%
09:00 +28°C° 1.8 mm 5 m/S 756 mmHg 93%
10:00 +28°C° 1.8 mm 4 m/S 756 mmHg 93%
11:00 +28°C° 1.8 mm 4 m/S 756 mmHg 93%
12:00 +28°C° 1.8 mm 4 m/S 756 mmHg 93%
13:00 +28°C° 2.2 mm 4 m/S 755 mmHg 94%
14:00 +28°C° 2.2 mm 3 m/S 754 mmHg 94%
15:00 +28°C° 2.2 mm 3 m/S 754 mmHg 94%
16:00 +27°C° 1.6 mm 3 m/S 754 mmHg 94%
17:00 +27°C° 1.6 mm 3 m/S 754 mmHg 94%
18:00 +27°C° 1.6 mm 4 m/S 754 mmHg 94%
19:00 +26°C° 1.1 mm 4 m/S 754 mmHg 95%
20:00 +26°C° 1.1 mm 4 m/S 755 mmHg 95%
21:00 +26°C° 1.1 mm 4 m/S 755 mmHg 95%
22:00 +26°C° 1.3 mm 4 m/S 755 mmHg 95%
23:00 +26°C° 1.3 mm 4 m/S 755 mmHg 96%
Mehr zeigen